Time,TemperatureF,DewpointF,PressureIn,WindDirection,WindDirectionDegrees,WindSpeedMPH,WindSpeedGustMPH,Humidity,HourlyPrecipIn,Conditions,Clouds,dailyrainin,SoftwareType,DateUTC
2013-09-26 00:02:00,75.4,58.6,29.79,ESE,120,0.0,0.0,56,0.00,,,0.00,WeatherTracker,2013-09-26 05:02:00,
2013-09-26 00:08:00,75.2,58.9,29.78,WNW,283,0.0,1.0,57,0.00,,,0.00,WeatherTracker,2013-09-26 05:08:00,
2013-09-26 00:13:00,75.1,58.8,29.78,West,280,0.0,1.0,57,0.00,,,0.00,WeatherTracker,2013-09-26 05:13:00,
2013-09-26 00:18:00,75.0,58.7,29.79,West,280,0.0,1.0,57,0.00,,,0.00,WeatherTracker,2013-09-26 05:18:00,
2013-09-26 00:23:00,74.9,59.1,29.79,West,280,0.0,3.0,58,0.00,,,0.00,WeatherTracker,2013-09-26 05:23:00,
2013-09-26 00:28:00,75.0,59.2,29.79,WNW,283,0.0,3.0,58,0.00,,,0.00,WeatherTracker,2013-09-26 05:28:00,
2013-09-26 00:33:00,74.8,59.5,29.79,WNW,283,0.0,1.0,59,0.00,,,0.00,WeatherTracker,2013-09-26 05:33:00,
2013-09-26 00:38:00,74.6,58.8,29.79,SSE,156,0.0,2.0,58,0.00,,,0.00,WeatherTracker,2013-09-26 05:38:00,
2013-09-26 00:43:00,74.6,58.8,29.78,West,275,0.0,3.0,58,0.00,,,0.00,WeatherTracker,2013-09-26 05:43:00,
2013-09-26 00:48:00,74.5,59.2,29.78,West,275,0.0,3.0,59,0.00,,,0.00,WeatherTracker,2013-09-26 05:48:00,
2013-09-26 00:53:00,74.3,59.0,29.79,WSW,252,0.0,1.0,59,0.00,,,0.00,WeatherTracker,2013-09-26 05:53:00,
2013-09-26 00:58:00,74.2,58.9,29.79,South,189,0.0,2.0,59,0.00,,,0.00,WeatherTracker,2013-09-26 05:58:00,
2013-09-26 01:03:00,74.1,58.8,29.78,NW,311,0.0,2.0,59,0.00,,,0.00,WeatherTracker,2013-09-26 06:03:00,
2013-09-26 01:08:00,74.0,58.7,29.79,NW,311,0.0,1.0,59,0.00,,,0.00,WeatherTracker,2013-09-26 06:08:00,
2013-09-26 01:13:00,73.8,59.0,29.79,NW,311,0.0,0.0,60,0.00,,,0.00,WeatherTracker,2013-09-26 06:13:00,
2013-09-26 01:18:00,73.4,59.1,29.79,NW,311,0.0,0.0,61,0.00,,,0.00,WeatherTracker,2013-09-26 06:18:00,
2013-09-26 01:23:00,72.9,59.6,29.79,NW,311,0.0,0.0,63,0.00,,,0.00,WeatherTracker,2013-09-26 06:23:00,
2013-09-26 01:29:00,72.5,59.2,29.79,NW,310,0.0,0.0,63,0.00,,,0.00,WeatherTracker,2013-09-26 06:29:00,
2013-09-26 01:34:00,72.1,59.2,29.79,NW,311,0.0,0.0,64,0.00,,,0.00,WeatherTracker,2013-09-26 06:34:00,
2013-09-26 01:39:00,71.7,59.7,29.79,NW,311,0.0,0.0,66,0.00,,,0.00,WeatherTracker,2013-09-26 06:39:00,
2013-09-26 01:44:00,71.6,60.0,29.79,NW,311,0.0,0.0,67,0.00,,,0.00,WeatherTracker,2013-09-26 06:44:00,
2013-09-26 01:49:00,71.5,60.0,29.79,NW,311,0.0,0.0,67,0.00,,,0.00,WeatherTracker,2013-09-26 06:49:00,
2013-09-26 01:54:00,71.4,60.3,29.79,NNE,27,0.0,1.0,68,0.00,,,0.00,WeatherTracker,2013-09-26 06:54:00,
2013-09-26 01:59:00,71.8,61.1,29.79,WSW,249,0.0,1.0,69,0.00,,,0.00,WeatherTracker,2013-09-26 06:59:00,
2013-09-26 02:04:00,72.2,61.9,29.79,WSW,249,0.0,1.0,70,0.00,,,0.00,WeatherTracker,2013-09-26 07:04:00,
2013-09-26 02:09:00,72.3,62.4,29.79,WSW,249,0.0,1.0,71,0.00,,,0.00,WeatherTracker,2013-09-26 07:09:00,
2013-09-26 02:14:00,72.3,62.4,29.79,WSW,249,0.0,0.0,71,0.00,,,0.00,WeatherTracker,2013-09-26 07:14:00,
2013-09-26 02:19:00,72.3,62.8,29.79,WSW,249,0.0,0.0,72,0.00,,,0.00,WeatherTracker,2013-09-26 07:19:00,
2013-09-26 02:24:00,72.3,62.8,29.79,West,260,0.0,1.0,72,0.00,,,0.00,WeatherTracker,2013-09-26 07:24:00,
2013-09-26 02:29:00,72.3,62.8,29.79,West,259,0.0,1.0,72,0.00,,,0.00,WeatherTracker,2013-09-26 07:29:00,
2013-09-26 02:34:00,72.2,62.7,29.79,West,260,0.0,0.0,72,0.00,,,0.00,WeatherTracker,2013-09-26 07:34:00,
2013-09-26 02:39:00,72.2,62.7,29.79,West,260,0.0,1.0,72,0.00,,,0.00,WeatherTracker,2013-09-26 07:39:00,
2013-09-26 02:44:00,72.0,62.5,29.79,West,259,0.0,1.0,72,0.00,,,0.00,WeatherTracker,2013-09-26 07:44:00,
2013-09-26 02:49:00,71.7,62.6,29.79,West,260,0.0,0.0,73,0.00,,,0.00,WeatherTracker,2013-09-26 07:49:00,
2013-09-26 02:54:00,71.5,62.8,29.79,West,259,0.0,0.0,74,0.00,,,0.00,WeatherTracker,2013-09-26 07:54:00,
2013-09-26 03:00:00,71.3,63.0,29.78,West,259,0.0,0.0,75,0.00,,,0.00,WeatherTracker,2013-09-26 08:00:00,
2013-09-26 03:05:00,71.2,62.9,29.78,West,259,0.0,0.0,75,0.00,,,0.00,WeatherTracker,2013-09-26 08:05:00,
2013-09-26 03:10:00,71.1,63.1,29.78,West,259,0.0,0.0,76,0.00,,,0.00,WeatherTracker,2013-09-26 08:10:00,
2013-09-26 03:15:00,71.1,63.1,29.79,West,259,0.0,0.0,76,0.00,,,0.00,WeatherTracker,2013-09-26 08:15:00,
2013-09-26 03:20:00,71.1,63.5,29.79,West,259,0.0,0.0,77,0.00,,,0.00,WeatherTracker,2013-09-26 08:20:00,
2013-09-26 03:25:00,71.0,63.8,29.78,West,259,0.0,0.0,78,0.00,,,0.00,WeatherTracker,2013-09-26 08:25:00,
2013-09-26 03:30:00,71.0,63.8,29.78,WSW,254,0.0,0.0,78,0.00,,,0.00,WeatherTracker,2013-09-26 08:30:00,
2013-09-26 03:35:00,71.0,63.8,29.78,WSW,255,0.0,0.0,78,0.00,,,0.00,WeatherTracker,2013-09-26 08:35:00,
2013-09-26 03:40:00,70.8,64.0,29.78,WSW,255,0.0,0.0,79,0.00,,,0.00,WeatherTracker,2013-09-26 08:40:00,
2013-09-26 03:45:00,70.5,63.7,29.78,WSW,255,0.0,0.0,79,0.00,,,0.00,WeatherTracker,2013-09-26 08:45:00,
2013-09-26 03:50:00,70.2,63.7,29.78,WSW,255,0.0,0.0,80,0.00,,,0.00,WeatherTracker,2013-09-26 08:50:00,
2013-09-26 03:55:00,69.8,63.3,29.78,WSW,255,0.0,0.0,80,0.00,,,0.00,WeatherTracker,2013-09-26 08:55:00,
2013-09-26 04:00:00,69.6,63.5,29.78,WSW,254,0.0,0.0,81,0.00,,,0.00,WeatherTracker,2013-09-26 09:00:00,
2013-09-26 04:05:00,69.4,63.7,29.78,WSW,255,0.0,0.0,82,0.00,,,0.00,WeatherTracker,2013-09-26 09:05:00,
2013-09-26 04:10:00,69.6,64.5,29.78,WSW,252,0.0,1.0,84,0.00,,,0.00,WeatherTracker,2013-09-26 09:10:00,
2013-09-26 04:15:00,69.6,64.5,29.78,WSW,252,0.0,1.0,84,0.00,,,0.00,WeatherTracker,2013-09-26 09:15:00,
2013-09-26 04:21:00,69.6,64.5,29.78,WSW,252,0.0,0.0,84,0.00,,,0.00,WeatherTracker,2013-09-26 09:21:00,
2013-09-26 04:26:00,69.5,64.4,29.78,WSW,252,0.0,0.0,84,0.00,,,0.00,WeatherTracker,2013-09-26 09:26:00,
2013-09-26 04:31:00,69.2,64.5,29.78,WSW,252,0.0,0.0,85,0.00,,,0.00,WeatherTracker,2013-09-26 09:31:00,
2013-09-26 04:36:00,69.0,64.3,29.78,WSW,252,0.0,0.0,85,0.00,,,0.00,WeatherTracker,2013-09-26 09:36:00,
2013-09-26 04:41:00,68.7,64.0,29.78,WSW,252,0.0,0.0,85,0.00,,,0.00,WeatherTracker,2013-09-26 09:41:00,
2013-09-26 04:46:00,68.5,64.5,29.78,WSW,252,0.0,0.0,87,0.00,,,0.00,WeatherTracker,2013-09-26 09:46:00,
2013-09-26 04:51:00,68.5,64.8,29.78,WSW,252,0.0,0.0,88,0.00,,,0.00,WeatherTracker,2013-09-26 09:51:00,
2013-09-26 04:56:00,68.6,64.9,29.78,WSW,252,0.0,0.0,88,0.00,,,0.00,WeatherTracker,2013-09-26 09:56:00,
2013-09-26 05:01:00,68.5,65.1,29.78,WSW,252,0.0,0.0,89,0.00,,,0.00,WeatherTracker,2013-09-26 10:01:00,
2013-09-26 05:06:00,68.4,64.7,29.78,WSW,252,0.0,0.0,88,0.00,,,0.00,WeatherTracker,2013-09-26 10:06:00,
2013-09-26 05:11:00,68.1,64.4,29.78,WSW,252,0.0,0.0,88,0.00,,,0.00,WeatherTracker,2013-09-26 10:11:00,
2013-09-26 05:16:00,67.8,64.4,29.78,WSW,252,0.0,0.0,89,0.00,,,0.00,WeatherTracker,2013-09-26 10:16:00,
2013-09-26 05:21:00,67.5,64.1,29.79,WSW,252,0.0,0.0,89,0.00,,,0.00,WeatherTracker,2013-09-26 10:21:00,
2013-09-26 05:26:00,67.2,63.8,29.79,WSW,252,0.0,0.0,89,0.00,,,0.00,WeatherTracker,2013-09-26 10:26:00,
2013-09-26 05:31:00,66.9,63.5,29.79,WSW,252,0.0,0.0,89,0.00,,,0.00,WeatherTracker,2013-09-26 10:31:00,
2013-09-26 05:36:00,66.9,63.9,29.79,WSW,252,0.0,0.0,90,0.00,,,0.00,WeatherTracker,2013-09-26 10:36:00,
2013-09-26 05:41:00,66.9,63.9,29.79,WSW,252,0.0,0.0,90,0.00,,,0.00,WeatherTracker,2013-09-26 10:41:00,
2013-09-26 05:47:00,66.8,63.8,29.79,WSW,252,0.0,0.0,90,0.00,,,0.00,WeatherTracker,2013-09-26 10:47:00,
2013-09-26 05:52:00,66.7,63.7,29.79,WSW,252,0.0,0.0,90,0.00,,,0.00,WeatherTracker,2013-09-26 10:52:00,
2013-09-26 05:57:00,66.6,63.9,29.79,WSW,252,0.0,0.0,91,0.00,,,0.00,WeatherTracker,2013-09-26 10:57:00,
2013-09-26 06:02:00,66.6,63.9,29.79,WSW,252,0.0,0.0,91,0.00,,,0.00,WeatherTracker,2013-09-26 11:02:00,
2013-09-26 06:07:00,66.4,63.7,29.79,WSW,252,0.0,0.0,91,0.00,,,0.00,WeatherTracker,2013-09-26 11:07:00,
2013-09-26 06:12:00,66.2,63.5,29.80,WSW,252,0.0,0.0,91,0.00,,,0.00,WeatherTracker,2013-09-26 11:12:00,
2013-09-26 06:17:00,66.1,63.4,29.80,WSW,252,0.0,0.0,91,0.00,,,0.00,WeatherTracker,2013-09-26 11:17:00,
2013-09-26 06:22:00,66.1,63.4,29.80,WSW,252,0.0,0.0,91,0.00,,,0.00,WeatherTracker,2013-09-26 11:22:00,
2013-09-26 06:27:00,66.1,63.7,29.80,WSW,252,0.0,0.0,92,0.00,,,0.00,WeatherTracker,2013-09-26 11:27:00,
2013-09-26 06:32:00,66.2,63.8,29.80,WSW,252,0.0,0.0,92,0.00,,,0.00,WeatherTracker,2013-09-26 11:32:00,
2013-09-26 06:37:00,66.6,64.5,29.80,ESE,108,0.0,0.0,93,0.00,,,0.00,WeatherTracker,2013-09-26 11:37:00,
2013-09-26 06:42:00,67.2,65.4,29.80,ESE,107,0.0,0.0,94,0.00,,,0.00,WeatherTracker,2013-09-26 11:42:00,
2013-09-26 06:47:00,68.1,66.6,29.81,ESE,109,0.0,1.0,95,0.00,,,0.00,WeatherTracker,2013-09-26 11:47:00,
2013-09-26 06:52:00,68.7,66.9,29.81,ESE,108,0.0,1.0,94,0.00,,,0.00,WeatherTracker,2013-09-26 11:52:00,
2013-09-26 06:58:00,69.2,67.4,29.81,ESE,109,0.0,0.0,94,0.00,,,0.00,WeatherTracker,2013-09-26 11:58:00,
2013-09-26 07:03:00,69.6,67.5,29.82,ESE,108,0.0,0.0,93,0.00,,,0.00,WeatherTracker,2013-09-26 12:03:00,
2013-09-26 07:08:00,70.2,68.4,29.82,WSW,248,0.0,1.0,94,0.00,,,0.00,WeatherTracker,2013-09-26 12:08:00,
2013-09-26 07:13:00,70.7,68.6,29.82,SW,228,0.0,1.0,93,0.00,,,0.00,WeatherTracker,2013-09-26 12:13:00,
2013-09-26 07:18:00,71.2,69.4,29.82,WSW,252,0.0,1.0,94,0.00,,,0.00,WeatherTracker,2013-09-26 12:18:00,
2013-09-26 07:23:00,71.4,69.3,29.82,SW,233,0.0,1.0,93,0.00,,,0.00,WeatherTracker,2013-09-26 12:23:00,
2013-09-26 07:28:00,71.5,69.4,29.82,WSW,253,0.0,1.0,93,0.00,,,0.00,WeatherTracker,2013-09-26 12:28:00,
2013-09-26 07:33:00,71.7,69.6,29.82,WSW,253,0.0,1.0,93,0.00,,,0.00,WeatherTracker,2013-09-26 12:33:00,
2013-09-26 07:38:00,71.8,69.7,29.82,West,264,0.0,1.0,93,0.00,,,0.00,WeatherTracker,2013-09-26 12:38:00,
2013-09-26 07:43:00,71.8,69.7,29.82,West,264,0.0,1.0,93,0.00,,,0.00,WeatherTracker,2013-09-26 12:43:00,
2013-09-26 07:48:00,71.7,69.6,29.82,West,264,0.0,0.0,93,0.00,,,0.00,WeatherTracker,2013-09-26 12:48:00,
2013-09-26 07:53:00,71.6,69.5,29.83,West,264,0.0,0.0,93,0.00,,,0.00,WeatherTracker,2013-09-26 12:53:00,
2013-09-26 07:58:00,71.5,69.7,29.82,West,263,0.0,0.0,94,0.00,,,0.00,WeatherTracker,2013-09-26 12:58:00,
2013-09-26 08:03:00,71.6,69.8,29.82,West,263,0.0,0.0,94,0.00,,,0.00,WeatherTracker,2013-09-26 13:03:00,
2013-09-26 08:08:00,71.5,69.7,29.82,West,263,0.0,0.0,94,0.00,,,0.00,WeatherTracker,2013-09-26 13:08:00,
2013-09-26 08:13:00,71.4,69.6,29.83,West,263,0.0,0.0,94,0.00,,,0.00,WeatherTracker,2013-09-26 13:13:00,
2013-09-26 08:18:00,71.5,69.7,29.83,West,263,0.0,0.0,94,0.00,,,0.00,WeatherTracker,2013-09-26 13:18:00,
2013-09-26 08:23:00,71.7,69.9,29.83,West,263,0.0,0.0,94,0.00,,,0.00,WeatherTracker,2013-09-26 13:23:00,
2013-09-26 08:28:00,72.0,70.2,29.83,West,263,0.0,0.0,94,0.00,,,0.00,WeatherTracker,2013-09-26 13:28:00,
2013-09-26 08:33:00,72.2,70.4,29.83,West,263,0.0,1.0,94,0.00,,,0.00,WeatherTracker,2013-09-26 13:33:00,
2013-09-26 08:39:00,72.3,70.5,29.83,West,269,0.0,1.0,94,0.00,,,0.00,WeatherTracker,2013-09-26 13:39:00,
2013-09-26 08:44:00,72.5,70.4,29.84,WSW,252,0.0,1.0,93,0.00,,,0.00,WeatherTracker,2013-09-26 13:44:00,
2013-09-26 08:49:00,72.7,70.2,29.84,West,263,0.0,1.0,92,0.00,,,0.00,WeatherTracker,2013-09-26 13:49:00,
2013-09-26 08:54:00,72.9,70.4,29.84,West,263,0.0,1.0,92,0.00,,,0.00,WeatherTracker,2013-09-26 13:54:00,
2013-09-26 08:59:00,73.2,70.4,29.84,WSW,250,0.0,1.0,91,0.00,,,0.00,WeatherTracker,2013-09-26 13:59:00,
2013-09-26 09:04:00,73.6,70.5,29.84,WSW,252,0.0,1.0,90,0.00,,,0.00,WeatherTracker,2013-09-26 14:04:00,
2013-09-26 09:09:00,74.1,70.6,29.84,WSW,250,0.0,1.0,89,0.00,,,0.00,WeatherTracker,2013-09-26 14:09:00,
2013-09-26 09:14:00,74.8,71.0,29.84,WSW,252,0.0,1.0,88,0.00,,,0.00,WeatherTracker,2013-09-26 14:14:00,
2013-09-26 09:19:00,75.5,71.0,29.84,WSW,243,0.0,1.0,86,0.00,,,0.00,WeatherTracker,2013-09-26 14:19:00,
2013-09-26 09:24:00,75.9,71.1,29.84,WSW,248,0.0,1.0,85,0.00,,,0.00,WeatherTracker,2013-09-26 14:24:00,
2013-09-26 09:29:00,76.6,71.0,29.85,SW,235,0.0,1.0,83,0.00,,,0.00,WeatherTracker,2013-09-26 14:29:00,
2013-09-26 09:34:00,77.1,71.2,29.84,West,263,0.0,2.0,82,0.00,,,0.00,WeatherTracker,2013-09-26 14:34:00,
2013-09-26 09:39:00,77.8,71.5,29.85,WNW,288,1.0,2.0,81,0.00,,,0.00,WeatherTracker,2013-09-26 14:39:00,
2013-09-26 09:44:00,78.5,71.4,29.85,West,264,0.0,3.0,79,0.00,,,0.00,WeatherTracker,2013-09-26 14:44:00,
2013-09-26 09:49:00,79.1,71.3,29.85,WSW,237,0.0,3.0,77,0.00,,,0.00,WeatherTracker,2013-09-26 14:49:00,
2013-09-26 09:54:00,79.4,71.2,29.85,SW,226,0.0,1.0,76,0.00,,,0.00,WeatherTracker,2013-09-26 14:54:00,
2013-09-26 09:59:00,79.6,71.3,29.85,SSW,212,0.0,1.0,76,0.00,,,0.00,WeatherTracker,2013-09-26 14:59:00,
2013-09-26 10:05:00,79.3,70.3,29.85,SW,236,0.0,1.0,74,0.00,,,0.00,WeatherTracker,2013-09-26 15:05:00,
2013-09-26 10:10:00,79.4,70.0,29.85,SW,228,0.0,2.0,73,0.00,,,0.00,WeatherTracker,2013-09-26 15:10:00,
2013-09-26 10:15:00,79.7,70.3,29.85,WSW,242,0.0,2.0,73,0.00,,,0.00,WeatherTracker,2013-09-26 15:15:00,
2013-09-26 10:20:00,79.8,70.4,29.85,WSW,245,0.0,2.0,73,0.00,,,0.00,WeatherTracker,2013-09-26 15:20:00,
2013-09-26 10:25:00,80.8,70.5,29.86,ESE,110,3.0,3.0,71,0.00,,,0.00,WeatherTracker,2013-09-26 15:25:00,
2013-09-26 10:30:00,82.0,70.4,29.85,SW,228,0.0,8.0,68,0.00,,,0.00,WeatherTracker,2013-09-26 15:30:00,
2013-09-26 10:35:00,82.5,69.5,29.85,West,274,0.0,8.0,65,0.00,,,0.00,WeatherTracker,2013-09-26 15:35:00,
2013-09-26 10:40:00,83.0,70.0,29.85,SW,232,0.0,4.0,65,0.00,,,0.00,WeatherTracker,2013-09-26 15:40:00,
2013-09-26 10:45:00,83.2,70.6,29.85,SW,224,0.0,4.0,66,0.00,,,0.00,WeatherTracker,2013-09-26 15:45:00,
2013-09-26 10:50:00,83.2,69.7,29.85,WSW,243,0.0,4.0,64,0.00,,,0.00,WeatherTracker,2013-09-26 15:50:00,
2013-09-26 10:55:00,83.2,69.3,29.86,WSW,257,0.0,4.0,63,0.00,,,0.00,WeatherTracker,2013-09-26 15:55:00,
2013-09-26 11:00:00,83.1,70.1,29.86,SE,146,1.0,4.0,65,0.00,,,0.00,WeatherTracker,2013-09-26 16:00:00,
2013-09-26 11:05:00,83.7,69.7,29.86,SW,218,1.0,3.0,63,0.00,,,0.00,WeatherTracker,2013-09-26 16:05:00,
2013-09-26 11:10:00,83.4,69.9,29.86,ESE,122,4.0,4.0,64,0.00,,,0.00,WeatherTracker,2013-09-26 16:10:00,
2013-09-26 11:15:00,83.3,68.9,29.85,West,259,0.0,5.0,62,0.00,,,0.00,WeatherTracker,2013-09-26 16:15:00,
2013-09-26 11:20:00,83.3,68.4,29.85,NE,54,1.0,5.0,61,0.00,,,0.00,WeatherTracker,2013-09-26 16:20:00,
2013-09-26 11:25:00,83.6,69.6,29.85,West,280,0.0,4.0,63,0.00,,,0.00,WeatherTracker,2013-09-26 16:25:00,
2013-09-26 11:31:00,84.3,69.4,29.85,West,259,0.0,4.0,61,0.00,,,0.00,WeatherTracker,2013-09-26 16:31:00,
2013-09-26 11:36:00,84.7,68.8,29.85,WSW,252,0.0,5.0,59,0.00,,,0.00,WeatherTracker,2013-09-26 16:36:00,
2013-09-26 11:41:00,84.5,69.1,29.85,SW,235,0.0,5.0,60,0.00,,,0.00,WeatherTracker,2013-09-26 16:41:00,
2013-09-26 11:46:00,85.2,69.2,29.85,SE,126,1.0,2.0,59,0.00,,,0.00,WeatherTracker,2013-09-26 16:46:00,
2013-09-26 11:51:00,85.9,68.4,29.85,WSW,245,1.0,2.0,56,0.00,,,0.00,WeatherTracker,2013-09-26 16:51:00,
2013-09-26 11:56:00,85.3,68.3,29.84,West,267,2.0,4.0,57,0.00,,,0.00,WeatherTracker,2013-09-26 16:56:00,
2013-09-26 12:01:00,85.6,68.6,29.85,SSW,196,1.0,4.0,57,0.00,,,0.00,WeatherTracker,2013-09-26 17:01:00,
2013-09-26 12:06:00,86.3,68.7,29.84,ENE,68,1.0,2.0,56,0.00,,,0.00,WeatherTracker,2013-09-26 17:06:00,
2013-09-26 12:11:00,86.6,67.9,29.84,WNW,290,1.0,2.0,54,0.00,,,0.00,WeatherTracker,2013-09-26 17:11:00,
2013-09-26 12:16:00,86.9,68.2,29.84,ESE,122,1.0,4.0,54,0.00,,,0.00,WeatherTracker,2013-09-26 17:16:00,
2013-09-26 12:21:00,87.3,68.0,29.84,East,95,0.0,4.0,53,0.00,,,0.00,WeatherTracker,2013-09-26 17:21:00,
2013-09-26 12:26:00,87.9,67.5,29.84,South,177,3.0,6.0,51,0.00,,,0.00,WeatherTracker,2013-09-26 17:26:00,
2013-09-26 12:31:00,87.9,66.9,29.84,NW,322,1.0,6.0,50,0.00,,,0.00,WeatherTracker,2013-09-26 17:31:00,
2013-09-26 12:36:00,87.8,67.4,29.84,SW,231,0.0,4.0,51,0.00,,,0.00,WeatherTracker,2013-09-26 17:36:00,
2013-09-26 12:41:00,87.9,67.5,29.84,South,169,0.0,4.0,51,0.00,,,0.00,WeatherTracker,2013-09-26 17:41:00,
2013-09-26 12:46:00,88.3,66.7,29.83,ESE,102,0.0,3.0,49,0.00,,,0.00,WeatherTracker,2013-09-26 17:46:00,
2013-09-26 12:51:00,87.7,65.5,29.83,WSW,250,0.0,3.0,48,0.00,,,0.00,WeatherTracker,2013-09-26 17:51:00,
2013-09-26 12:57:00,87.7,66.1,29.83,SSW,208,0.0,4.0,49,0.00,,,0.00,WeatherTracker,2013-09-26 17:57:00,
2013-09-26 13:02:00,88.1,65.3,29.83,West,262,0.0,4.0,47,0.00,,,0.00,WeatherTracker,2013-09-26 18:02:00,
2013-09-26 13:07:00,88.5,66.9,29.82,ENE,76,1.0,5.0,49,0.00,,,0.00,WeatherTracker,2013-09-26 18:07:00,
2013-09-26 13:12:00,88.9,66.6,29.82,WSW,249,2.0,5.0,48,0.00,,,0.00,WeatherTracker,2013-09-26 18:12:00,
2013-09-26 13:17:00,88.3,66.1,29.82,WNW,286,1.0,4.0,48,0.00,,,0.00,WeatherTracker,2013-09-26 18:17:00,
2013-09-26 13:22:00,88.2,66.0,29.82,NW,322,1.0,4.0,48,0.00,,,0.00,WeatherTracker,2013-09-26 18:22:00,
2013-09-26 13:27:00,88.7,65.8,29.82,NNE,27,0.0,4.0,47,0.00,,,0.00,WeatherTracker,2013-09-26 18:27:00,
2013-09-26 13:32:00,89.2,66.3,29.82,WSW,253,0.0,4.0,47,0.00,,,0.00,WeatherTracker,2013-09-26 18:32:00,
2013-09-26 13:37:00,89.3,66.4,29.82,SW,229,2.0,4.0,47,0.00,,,0.00,WeatherTracker,2013-09-26 18:37:00,
2013-09-26 13:42:00,89.6,66.0,29.81,East,87,1.0,5.0,46,0.00,,,0.00,WeatherTracker,2013-09-26 18:42:00,
2013-09-26 13:47:00,89.9,64.4,29.81,West,276,2.0,6.0,43,0.00,,,0.00,WeatherTracker,2013-09-26 18:47:00,
2013-09-26 13:52:00,90.1,65.2,29.81,East,86,1.0,6.0,44,0.00,,,0.00,WeatherTracker,2013-09-26 18:52:00,
2013-09-26 13:57:00,90.1,65.9,29.81,WNW,298,0.0,5.0,45,0.00,,,0.00,WeatherTracker,2013-09-26 18:57:00,
2013-09-26 14:02:00,90.2,65.9,29.80,West,264,0.0,5.0,45,0.00,,,0.00,WeatherTracker,2013-09-26 19:02:00,
2013-09-26 14:07:00,90.2,65.3,29.80,WSW,248,0.0,7.0,44,0.00,,,0.00,WeatherTracker,2013-09-26 19:07:00,
2013-09-26 14:12:00,90.5,64.2,29.80,East,94,2.0,7.0,42,0.00,,,0.00,WeatherTracker,2013-09-26 19:12:00,
2013-09-26 14:18:00,90.3,64.7,29.80,WNW,295,1.0,6.0,43,0.00,,,0.00,WeatherTracker,2013-09-26 19:18:00,
2013-09-26 14:23:00,90.6,65.7,29.80,NE,56,0.0,7.0,44,0.00,,,0.00,WeatherTracker,2013-09-26 19:23:00,
2013-09-26 14:28:00,90.9,65.3,29.80,SW,221,2.0,7.0,43,0.00,,,0.00,WeatherTracker,2013-09-26 19:28:00,
2013-09-26 14:33:00,90.2,64.6,29.79,SSE,153,0.0,8.0,43,0.00,,,0.00,WeatherTracker,2013-09-26 19:33:00,
2013-09-26 14:38:00,90.4,65.5,29.79,SE,146,2.0,8.0,44,0.00,,,0.00,WeatherTracker,2013-09-26 19:38:00,
2013-09-26 14:43:00,90.8,64.5,29.79,SE,132,7.0,9.0,42,0.00,,,0.00,WeatherTracker,2013-09-26 19:43:00,
2013-09-26 14:48:00,90.8,63.8,29.79,West,273,0.0,9.0,41,0.00,,,0.00,WeatherTracker,2013-09-26 19:48:00,
2013-09-26 14:53:00,90.8,64.5,29.79,SSE,163,3.0,7.0,42,0.00,,,0.00,WeatherTracker,2013-09-26 19:53:00,
2013-09-26 14:58:00,90.9,65.9,29.79,WNW,288,0.0,6.0,44,0.00,,,0.00,WeatherTracker,2013-09-26 19:58:00,
2013-09-26 15:03:00,90.8,65.2,29.79,ESE,110,0.0,6.0,43,0.00,,,0.00,WeatherTracker,2013-09-26 20:03:00,
2013-09-26 15:08:00,90.5,65.6,29.78,NW,310,0.0,5.0,44,0.00,,,0.00,WeatherTracker,2013-09-26 20:08:00,
2013-09-26 15:13:00,90.6,65.7,29.78,SW,232,1.0,5.0,44,0.00,,,0.00,WeatherTracker,2013-09-26 20:13:00,
2013-09-26 15:18:00,90.8,65.2,29.78,ESE,103,1.0,5.0,43,0.00,,,0.00,WeatherTracker,2013-09-26 20:18:00,
2013-09-26 15:23:00,91.1,65.4,29.77,WNW,298,2.0,6.0,43,0.00,,,0.00,WeatherTracker,2013-09-26 20:23:00,
2013-09-26 15:28:00,91.2,65.5,29.77,SW,217,3.0,9.0,43,0.00,,,0.00,WeatherTracker,2013-09-26 20:28:00,
2013-09-26 15:33:00,91.3,66.3,29.77,WSW,255,0.0,9.0,44,0.00,,,0.00,WeatherTracker,2013-09-26 20:33:00,
2013-09-26 15:38:00,91.0,66.7,29.77,SSW,195,1.0,6.0,45,0.00,,,0.00,WeatherTracker,2013-09-26 20:38:00,
2013-09-26 15:44:00,91.5,67.1,29.77,WSW,245,2.0,6.0,45,0.00,,,0.00,WeatherTracker,2013-09-26 20:44:00,
2013-09-26 15:49:00,91.8,66.1,29.77,SE,142,2.0,7.0,43,0.00,,,0.00,WeatherTracker,2013-09-26 20:49:00,
2013-09-26 15:54:00,91.5,66.5,29.77,SSE,153,4.0,7.0,44,0.00,,,0.00,WeatherTracker,2013-09-26 20:54:00,
2013-09-26 15:59:00,91.2,66.2,29.77,East,84,1.0,6.0,44,0.00,,,0.00,WeatherTracker,2013-09-26 20:59:00,
2013-09-26 16:04:00,91.2,66.2,29.77,WSW,257,1.0,8.0,44,0.00,,,0.00,WeatherTracker,2013-09-26 21:04:00,
2013-09-26 16:09:00,91.1,66.8,29.77,SSE,154,3.0,8.0,45,0.00,,,0.00,WeatherTracker,2013-09-26 21:09:00,
2013-09-26 16:14:00,90.8,66.5,29.77,East,82,3.0,5.0,45,0.00,,,0.00,WeatherTracker,2013-09-26 21:14:00,
2013-09-26 16:19:00,90.1,66.5,29.77,SSE,161,3.0,6.0,46,0.00,,,0.00,WeatherTracker,2013-09-26 21:19:00,
2013-09-26 16:24:00,90.0,66.4,29.77,ESE,108,0.0,7.0,46,0.00,,,0.00,WeatherTracker,2013-09-26 21:24:00,
2013-09-26 16:29:00,90.3,66.7,29.76,SSE,162,1.0,7.0,46,0.00,,,0.00,WeatherTracker,2013-09-26 21:29:00,
2013-09-26 16:34:00,89.7,66.7,29.76,WSW,257,0.0,6.0,47,0.00,,,0.00,WeatherTracker,2013-09-26 21:34:00,
2013-09-26 16:39:00,89.6,67.3,29.76,West,259,0.0,6.0,48,0.00,,,0.00,WeatherTracker,2013-09-26 21:39:00,
2013-09-26 16:44:00,89.7,66.7,29.76,West,262,1.0,8.0,47,0.00,,,0.00,WeatherTracker,2013-09-26 21:44:00,
2013-09-26 16:49:00,89.1,66.8,29.76,SSE,155,0.0,8.0,48,0.00,,,0.00,WeatherTracker,2013-09-26 21:49:00,
2013-09-26 16:54:00,88.6,67.0,29.76,South,177,1.0,6.0,49,0.00,,,0.00,WeatherTracker,2013-09-26 21:54:00,
2013-09-26 16:59:00,89.0,67.3,29.76,SSE,149,0.0,6.0,49,0.00,,,0.00,WeatherTracker,2013-09-26 21:59:00,
2013-09-26 17:04:00,89.2,67.5,29.75,SSE,159,0.0,4.0,49,0.00,,,0.00,WeatherTracker,2013-09-26 22:04:00,
2013-09-26 17:09:00,89.0,66.7,29.75,West,262,4.0,6.0,48,0.00,,,0.00,WeatherTracker,2013-09-26 22:09:00,
2013-09-26 17:14:00,88.3,67.3,29.75,South,174,1.0,6.0,50,0.00,,,0.00,WeatherTracker,2013-09-26 22:14:00,
2013-09-26 17:20:00,88.2,67.7,29.75,WSW,256,0.0,5.0,51,0.00,,,0.00,WeatherTracker,2013-09-26 22:20:00,
2013-09-26 17:25:00,88.4,67.9,29.75,SSW,205,0.0,6.0,51,0.00,,,0.00,WeatherTracker,2013-09-26 22:25:00,
2013-09-26 17:30:00,88.2,68.3,29.75,ENE,60,0.0,6.0,52,0.00,,,0.00,WeatherTracker,2013-09-26 22:30:00,
2013-09-26 17:35:00,87.8,67.9,29.75,WNW,288,0.0,6.0,52,0.00,,,0.00,WeatherTracker,2013-09-26 22:35:00,
2013-09-26 17:40:00,87.3,68.0,29.75,SSW,205,0.0,4.0,53,0.00,,,0.00,WeatherTracker,2013-09-26 22:40:00,
2013-09-26 17:45:00,86.9,67.7,29.75,SSE,156,2.0,4.0,53,0.00,,,0.00,WeatherTracker,2013-09-26 22:45:00,
2013-09-26 17:50:00,86.8,68.7,29.75,WNW,298,0.0,5.0,55,0.00,,,0.00,WeatherTracker,2013-09-26 22:50:00,
2013-09-26 17:55:00,87.1,68.9,29.75,SSE,155,0.0,5.0,55,0.00,,,0.00,WeatherTracker,2013-09-26 22:55:00,
2013-09-26 18:00:00,87.7,69.0,29.75,WSW,249,1.0,5.0,54,0.00,,,0.00,WeatherTracker,2013-09-26 23:00:00,
2013-09-26 18:05:00,88.1,69.3,29.75,WSW,250,0.0,5.0,54,0.00,,,0.00,WeatherTracker,2013-09-26 23:05:00,
2013-09-26 18:10:00,88.1,68.2,29.75,SE,131,0.0,5.0,52,0.00,,,0.00,WeatherTracker,2013-09-26 23:10:00,
2013-09-26 18:15:00,88.2,68.3,29.75,SW,222,0.0,3.0,52,0.00,,,0.00,WeatherTracker,2013-09-26 23:15:00,
2013-09-26 18:20:00,88.4,68.5,29.75,SE,141,2.0,4.0,52,0.00,,,0.00,WeatherTracker,2013-09-26 23:20:00,
2013-09-26 18:25:00,88.5,69.1,29.75,SSE,155,3.0,8.0,53,0.00,,,0.00,WeatherTracker,2013-09-26 23:25:00,
2013-09-26 18:30:00,88.5,69.1,29.76,ESE,113,1.0,8.0,53,0.00,,,0.00,WeatherTracker,2013-09-26 23:30:00,
2013-09-26 18:35:00,88.3,69.5,29.75,SSE,160,1.0,4.0,54,0.00,,,0.00,WeatherTracker,2013-09-26 23:35:00,
2013-09-26 18:41:00,87.9,69.7,29.75,SE,146,0.0,6.0,55,0.00,,,0.00,WeatherTracker,2013-09-26 23:41:00,
2013-09-26 18:46:00,87.5,69.8,29.75,ESE,111,2.0,7.0,56,0.00,,,0.00,WeatherTracker,2013-09-26 23:46:00,
2013-09-26 18:51:00,87.2,69.6,29.76,SSW,192,1.0,7.0,56,0.00,,,0.00,WeatherTracker,2013-09-26 23:51:00,
2013-09-26 18:56:00,86.9,69.8,29.76,ENE,58,2.0,7.0,57,0.00,,,0.00,WeatherTracker,2013-09-26 23:56:00,
2013-09-26 19:01:00,86.7,69.6,29.76,ENE,65,0.0,5.0,57,0.00,,,0.00,WeatherTracker,2013-09-27 00:01:00,
2013-09-26 19:06:00,86.5,69.4,29.75,SE,139,0.0,8.0,57,0.00,,,0.00,WeatherTracker,2013-09-27 00:06:00,
2013-09-26 19:11:00,86.3,69.7,29.76,ESE,102,0.0,8.0,58,0.00,,,0.00,WeatherTracker,2013-09-27 00:11:00,
2013-09-26 19:16:00,86.2,70.2,29.75,ESE,103,0.0,3.0,59,0.00,,,0.00,WeatherTracker,2013-09-27 00:16:00,
2013-09-26 19:21:00,86.1,70.1,29.75,South,173,1.0,2.0,59,0.00,,,0.00,WeatherTracker,2013-09-27 00:21:00,
2013-09-26 19:26:00,85.9,69.4,29.75,ESE,111,2.0,5.0,58,0.00,,,0.00,WeatherTracker,2013-09-27 00:26:00,
2013-09-26 19:31:00,85.8,69.8,29.75,SE,127,2.0,5.0,59,0.00,,,0.00,WeatherTracker,2013-09-27 00:31:00,
2013-09-26 19:36:00,85.5,70.0,29.75,ESE,106,1.0,7.0,60,0.00,,,0.00,WeatherTracker,2013-09-27 00:36:00,
2013-09-26 19:41:00,85.3,70.3,29.76,East,91,0.0,7.0,61,0.00,,,0.00,WeatherTracker,2013-09-27 00:41:00,
2013-09-26 19:46:00,85.0,70.5,29.76,SSE,159,0.0,6.0,62,0.00,,,0.00,WeatherTracker,2013-09-27 00:46:00,
2013-09-26 19:51:00,84.7,70.2,29.76,ESE,103,2.0,6.0,62,0.00,,,0.00,WeatherTracker,2013-09-27 00:51:00,
2013-09-26 19:56:00,84.6,70.6,29.76,ESE,110,0.0,4.0,63,0.00,,,0.00,WeatherTracker,2013-09-27 00:56:00,
2013-09-26 20:01:00,84.5,70.5,29.76,ENE,75,1.0,4.0,63,0.00,,,0.00,WeatherTracker,2013-09-27 01:01:00,
2013-09-26 20:06:00,84.3,70.8,29.76,ESE,117,1.0,4.0,64,0.00,,,0.00,WeatherTracker,2013-09-27 01:06:00,
2013-09-26 20:12:00,84.1,70.6,29.77,South,174,0.0,2.0,64,0.00,,,0.00,WeatherTracker,2013-09-27 01:12:00,
2013-09-26 20:17:00,84.0,70.9,29.76,SE,142,0.0,4.0,65,0.00,,,0.00,WeatherTracker,2013-09-27 01:17:00,
2013-09-26 20:22:00,83.9,70.8,29.77,SE,134,3.0,7.0,65,0.00,,,0.00,WeatherTracker,2013-09-27 01:22:00,
2013-09-26 20:27:00,83.8,71.2,29.77,East,96,3.0,7.0,66,0.00,,,0.00,WeatherTracker,2013-09-27 01:27:00,
2013-09-26 20:32:00,83.7,71.1,29.77,SSW,211,0.0,6.0,66,0.00,,,0.00,WeatherTracker,2013-09-27 01:32:00,
2013-09-26 20:37:00,83.5,71.8,29.77,East,95,4.0,6.0,68,0.00,,,0.00,WeatherTracker,2013-09-27 01:37:00,
2013-09-26 20:42:00,83.3,72.0,29.77,South,188,2.0,5.0,69,0.00,,,0.00,WeatherTracker,2013-09-27 01:42:00,
2013-09-26 20:47:00,83.0,72.2,29.78,SE,143,0.0,5.0,70,0.00,,,0.00,WeatherTracker,2013-09-27 01:47:00,
2013-09-26 20:52:00,82.9,72.1,29.78,SSE,158,2.0,7.0,70,0.00,,,0.00,WeatherTracker,2013-09-27 01:52:00,
2013-09-26 20:57:00,82.8,72.4,29.78,NNW,330,0.0,7.0,71,0.00,,,0.00,WeatherTracker,2013-09-27 01:57:00,
2013-09-26 21:02:00,82.7,72.3,29.79,NE,50,4.0,5.0,71,0.00,,,0.00,WeatherTracker,2013-09-27 02:02:00,
2013-09-26 21:07:00,82.6,72.6,29.79,ESE,106,5.0,5.0,72,0.00,,,0.00,WeatherTracker,2013-09-27 02:07:00,
2013-09-26 21:12:00,82.5,72.9,29.79,SSE,150,2.0,8.0,73,0.00,,,0.00,WeatherTracker,2013-09-27 02:12:00,
2013-09-26 21:17:00,82.4,72.9,29.79,ENE,73,5.0,8.0,73,0.00,,,0.00,WeatherTracker,2013-09-27 02:17:00,
2013-09-26 21:22:00,82.3,72.8,29.79,ESE,115,1.0,7.0,73,0.00,,,0.00,WeatherTracker,2013-09-27 02:22:00,
2013-09-26 21:27:00,82.1,73.0,29.79,ESE,113,1.0,7.0,74,0.00,,,0.00,WeatherTracker,2013-09-27 02:27:00,
2013-09-26 21:33:00,81.9,73.2,29.80,East,99,0.0,7.0,75,0.00,,,0.00,WeatherTracker,2013-09-27 02:33:00,
2013-09-26 21:38:00,81.6,72.9,29.80,SE,129,0.0,7.0,75,0.00,,,0.00,WeatherTracker,2013-09-27 02:38:00,
2013-09-26 21:43:00,81.4,73.1,29.80,ENE,77,1.0,7.0,76,0.00,,,0.00,WeatherTracker,2013-09-27 02:43:00,
2013-09-26 21:48:00,81.1,73.2,29.80,East,101,1.0,9.0,77,0.00,,,0.00,WeatherTracker,2013-09-27 02:48:00,
2013-09-26 21:53:00,80.9,73.4,29.80,SE,145,1.0,17.0,78,0.00,,,0.00,WeatherTracker,2013-09-27 02:53:00,
2013-09-26 21:58:00,80.7,73.2,29.80,SE,129,5.0,17.0,78,0.00,,,0.00,WeatherTracker,2013-09-27 02:58:00,
2013-09-26 22:03:00,80.6,73.5,29.81,SSW,205,2.0,9.0,79,0.00,,,0.00,WeatherTracker,2013-09-27 03:03:00,
2013-09-26 22:08:00,80.5,73.4,29.81,ESE,120,2.0,9.0,79,0.00,,,0.00,WeatherTracker,2013-09-27 03:08:00,
2013-09-26 22:13:00,80.4,73.3,29.81,SSE,165,2.0,8.0,79,0.00,,,0.00,WeatherTracker,2013-09-27 03:13:00,
2013-09-26 22:18:00,80.3,73.5,29.81,East,82,3.0,8.0,80,0.00,,,0.00,WeatherTracker,2013-09-27 03:18:00,
2013-09-26 22:23:00,80.3,73.5,29.81,SSE,157,0.0,9.0,80,0.00,,,0.00,WeatherTracker,2013-09-27 03:23:00,
2013-09-26 22:28:00,80.2,73.5,29.81,SSE,158,3.0,9.0,80,0.00,,,0.00,WeatherTracker,2013-09-27 03:28:00,
2013-09-26 22:33:00,80.1,73.4,29.81,ENE,63,0.0,8.0,80,0.00,,,0.00,WeatherTracker,2013-09-27 03:33:00,
2013-09-26 22:38:00,80.0,73.3,29.82,ESE,116,0.0,9.0,80,0.00,,,0.00,WeatherTracker,2013-09-27 03:38:00,
2013-09-26 22:44:00,79.9,73.2,29.82,SSE,155,1.0,10.0,80,0.00,,,0.00,WeatherTracker,2013-09-27 03:44:00,
2013-09-26 22:49:00,79.8,73.4,29.82,ENE,77,1.0,10.0,81,0.00,,,0.00,WeatherTracker,2013-09-27 03:49:00,
2013-09-26 22:54:00,79.7,73.3,29.82,East,84,0.0,11.0,81,0.00,,,0.00,WeatherTracker,2013-09-27 03:54:00,
2013-09-26 22:59:00,79.5,73.1,29.82,SE,132,1.0,11.0,81,0.00,,,0.00,WeatherTracker,2013-09-27 03:59:00,
2013-09-26 23:01:00,79.5,73.1,29.82,SE,143,0.0,8.0,81,0.00,,,0.00,WeatherTracker,2013-09-27 04:01:00,
2013-09-26 23:04:00,79.4,73.0,29.82,East,92,4.0,8.0,81,0.00,,,0.00,WeatherTracker,2013-09-27 04:04:00,
2013-09-26 23:09:00,79.2,72.8,29.82,SE,138,0.0,7.0,81,0.00,,,0.00,WeatherTracker,2013-09-27 04:09:00,
2013-09-26 23:14:00,79.0,72.7,29.83,ENE,70,2.0,6.0,81,0.00,,,0.00,WeatherTracker,2013-09-27 04:14:00,
2013-09-26 23:19:00,78.8,72.5,29.83,SE,142,0.0,10.0,81,0.00,,,0.00,WeatherTracker,2013-09-27 04:19:00,
2013-09-26 23:24:00,78.6,72.3,29.83,SSE,155,1.0,10.0,81,0.00,,,0.00,WeatherTracker,2013-09-27 04:24:00,
2013-09-26 23:29:00,78.4,72.1,29.83,SSE,166,5.0,5.0,81,0.00,,,0.00,WeatherTracker,2013-09-27 04:29:00,
2013-09-26 23:34:00,78.2,71.9,29.83,SSE,166,3.0,6.0,81,0.00,,,0.00,WeatherTracker,2013-09-27 04:34:00,
2013-09-26 23:39:00,78.1,71.8,29.83,South,189,0.0,6.0,81,0.00,,,0.00,WeatherTracker,2013-09-27 04:39:00,
2013-09-26 23:44:00,77.9,71.9,29.83,SE,146,4.0,4.0,82,0.00,,,0.00,WeatherTracker,2013-09-27 04:44:00,
2013-09-26 23:49:00,77.7,71.8,29.84,South,177,1.0,5.0,82,0.00,,,0.00,WeatherTracker,2013-09-27 04:49:00,
2013-09-26 23:54:00,77.6,71.3,29.83,South,172,1.0,5.0,81,0.00,,,0.00,WeatherTracker,2013-09-27 04:54:00,
2013-09-26 23:59:00,77.5,71.2,29.83,SW,225,1.0,7.0,81,0.00,,,0.00,WeatherTracker,2013-09-27 04:59:00,